TimeAKDT,TemperatureF,Dew PointF,Humidity,Sea Level PressureIn,VisibilityMPH,Wind Direction,Wind SpeedMPH,Gust SpeedMPH,PrecipitationIn,Events,Conditions,WindDirDegrees,DateUTC
12:53 AM,45.0,42.1,90,29.47,10.0,West,5.8,-,0.00,Rain,Light Rain,280,2013-05-13 08:53:00
1:53 AM,44.1,44.1,100,29.47,10.0,NNW,4.6,-,0.01,Rain,Light Rain,330,2013-05-13 09:53:00
2:53 AM,43.0,43.0,100,29.46,10.0,NW,3.5,-,0.00,,Overcast,310,2013-05-13 10:53:00
3:53 AM,43.0,41.0,93,29.45,10.0,WNW,3.5,-,0.00,,Overcast,300,2013-05-13 11:53:00
4:53 AM,43.0,41.0,93,29.45,10.0,NW,3.5,-,0.00,,Overcast,310,2013-05-13 12:53:00
5:53 AM,44.1,41.0,89,29.44,10.0,NE,5.8,-,N/A,,Overcast,40,2013-05-13 13:53:00
6:30 AM,42.8,42.8,100,29.44,10.0,NNW,3.5,-,0.00,Rain,Light Rain,330,2013-05-13 14:30:00
6:53 AM,44.1,41.0,89,29.44,10.0,NW,3.5,-,0.01,,Overcast,320,2013-05-13 14:53:00
7:53 AM,43.0,41.0,93,29.44,10.0,NW,3.5,-,N/A,,Overcast,310,2013-05-13 15:53:00
8:53 AM,46.0,41.0,83,29.44,10.0,North,5.8,-,N/A,,Mostly Cloudy,10,2013-05-13 16:53:00
9:53 AM,46.9,32.0,56,29.43,10.0,North,8.1,-,N/A,,Overcast,350,2013-05-13 17:53:00
10:53 AM,46.9,30.0,52,29.43,10.0,North,8.1,-,N/A,,Overcast,350,2013-05-13 18:53:00
12:53 PM,51.1,21.0,31,29.42,10.0,NNW,10.4,-,N/A,,Overcast,340,2013-05-13 20:53:00
1:53 PM,52.0,17.1,25,29.42,10.0,NNW,8.1,-,N/A,,Overcast,340,2013-05-13 21:53:00
2:53 PM,54.0,12.9,20,29.41,10.0,NE,6.9,-,N/A,,Overcast,50,2013-05-13 22:53:00
4:53 PM,53.1,16.0,23,29.40,10.0,WNW,6.9,-,N/A,,Overcast,290,2013-05-14 00:53:00
5:53 PM,55.0,16.0,22,29.39,10.0,WNW,5.8,-,N/A,,Clear,290,2013-05-14 01:53:00
6:53 PM,53.1,15.1,22,29.40,10.0,North,-9999.0,-,N/A,,Partly Cloudy,0,2013-05-14 02:53:00
7:53 PM,50.0,14.0,24,29.41,10.0,NW,13.8,23.0,N/A,,Mostly Cloudy,320,2013-05-14 03:53:00
8:53 PM,48.0,12.0,24,29.42,10.0,NNW,9.2,-,N/A,,Scattered Clouds,330,2013-05-14 04:53:00
9:53 PM,46.0,12.9,26,29.44,10.0,NNW,9.2,-,N/A,,Overcast,340,2013-05-14 05:53:00
10:53 PM,45.0,12.0,26,29.46,10.0,NNW,6.9,-,N/A,,Clear,330,2013-05-14 06:53:00
11:53 PM,43.0,12.0,28,29.47,10.0,North,5.8,-,N/A,,Mostly Cloudy,350,2013-05-14 07:53:00